TimeCDT,TemperatureF,Dew PointF,Humidity,Sea Level PressureIn,VisibilityMPH,Wind Direction,Wind SpeedMPH,Gust SpeedMPH,PrecipitationIn,Events,Conditions,WindDirDegrees,DateUTC
12:10 AM,62.6,60.8,94,29.95,1.2,Calm,Calm,-,N/A,,Clear,0,2013-09-27 05:10:00
12:24 AM,62.6,60.8,94,29.95,3.0,Calm,Calm,-,N/A,,Clear,0,2013-09-27 05:24:00
12:30 AM,62.6,60.8,94,29.96,1.8,East,3.5,-,N/A,,Clear,100,2013-09-27 05:30:00
12:41 AM,64.4,60.8,88,29.96,3.0,ESE,4.6,-,N/A,,Clear,110,2013-09-27 05:41:00
12:53 AM,70.0,66.0,87,29.98,10.0,ESE,5.8,-,N/A,,Clear,120,2013-09-27 05:53:00
1:53 AM,70.0,66.9,90,29.98,8.0,ESE,6.9,-,N/A,,Clear,120,2013-09-27 06:53:00
2:53 AM,70.0,68.0,93,29.98,6.0,SE,4.6,-,N/A,,Clear,130,2013-09-27 07:53:00
3:53 AM,69.1,68.0,96,29.99,6.0,ESE,5.8,-,N/A,,Clear,110,2013-09-27 08:53:00
4:53 AM,69.1,66.9,93,29.99,5.0,ESE,5.8,-,N/A,,Clear,120,2013-09-27 09:53:00
5:53 AM,68.0,66.9,96,30.01,5.0,SE,4.6,-,N/A,,Clear,130,2013-09-27 10:53:00
6:53 AM,66.9,66.0,97,30.03,3.0,Calm,Calm,-,N/A,,Clear,0,2013-09-27 11:53:00
6:58 AM,66.2,64.4,94,30.01,1.8,SE,3.5,-,N/A,,Clear,140,2013-09-27 11:58:00
7:21 AM,66.2,66.2,100,30.02,3.0,ESE,3.5,-,0.01,,Clear,120,2013-09-27 12:21:00
7:39 AM,69.8,68.0,94,30.02,2.5,ESE,3.5,-,0.01,,Clear,120,2013-09-27 12:39:00
7:53 AM,70.0,68.0,93,30.05,3.0,SE,4.6,-,0.01,,Clear,130,2013-09-27 12:53:00
8:53 AM,73.0,69.1,87,30.06,6.0,East,3.5,-,N/A,,Clear,100,2013-09-27 13:53:00
9:53 AM,77.0,69.1,76,30.06,10.0,SSE,6.9,-,N/A,,Clear,160,2013-09-27 14:53:00
10:53 AM,80.1,68.0,67,30.06,10.0,SSE,6.9,-,N/A,,Clear,160,2013-09-27 15:53:00
11:53 AM,82.9,70.0,65,30.05,10.0,East,6.9,-,N/A,,Clear,80,2013-09-27 16:53:00
12:53 PM,84.0,68.0,58,30.03,10.0,ENE,6.9,-,N/A,,Partly Cloudy,70,2013-09-27 17:53:00
1:53 PM,84.9,66.9,55,30.01,10.0,East,8.1,-,N/A,,Mostly Cloudy,100,2013-09-27 18:53:00
2:53 PM,87.1,64.9,48,29.99,10.0,SE,6.9,-,N/A,,Partly Cloudy,130,2013-09-27 19:53:00
3:53 PM,84.9,64.9,51,29.98,10.0,ENE,6.9,-,N/A,,Partly Cloudy,70,2013-09-27 20:53:00
4:53 PM,87.1,64.9,48,29.98,10.0,East,8.1,-,N/A,,Scattered Clouds,100,2013-09-27 21:53:00
5:53 PM,84.0,66.9,56,29.98,10.0,East,6.9,-,N/A,,Clear,80,2013-09-27 22:53:00
6:53 PM,79.0,69.1,72,29.98,10.0,East,4.6,-,N/A,,Clear,90,2013-09-27 23:53:00
7:53 PM,75.9,69.1,79,30.00,10.0,ESE,4.6,-,N/A,,Clear,110,2013-09-28 00:53:00
8:53 PM,69.1,66.9,93,30.02,10.0,Calm,Calm,-,N/A,,Clear,0,2013-09-28 01:53:00
9:53 PM,73.9,68.0,82,30.03,10.0,ESE,5.8,-,N/A,,Scattered Clouds,120,2013-09-28 02:53:00
10:53 PM,73.9,66.0,76,30.04,10.0,ESE,8.1,-,N/A,,Scattered Clouds,120,2013-09-28 03:53:00
11:53 PM,73.0,66.0,79,30.03,10.0,SE,9.2,-,N/A,,Scattered Clouds,130,2013-09-28 04:53:00